Regional Weather Roundup
Issued by NWS

Home | Current Version | Previous Version | Text Only | Print | Product List | Glossary Off
Versions: 1 2 3 4 5 6 7 8 9 10 11 12 13 14 15 16 17 18 19 20 21 22 23 24 25 26 27 28 29 30 31 32 33 34 35 36 37 38 39 40 41 42 43 44 45 46 47 48 49 50

000
ASUS43 KTOP 281559
RWRKS

WEATHER ROUNDUP FOR KANSAS
NATIONAL WEATHER SERVICE GOODLAND KS
1000 AM CST SUN DEC 28 2014

NOTE:  "FAIR" INDICATES FEW OR NO CLOUDS BELOW 12,000 FEET WITH NO
SIGNIFICANT WEATHER AND/OR OBSTRUCTIONS TO VISIBILITY.

KSZ001>006-013>018-027>032-041>047-281700-
NORTHWEST KANSAS

CITY           SKY/WX    TMP DP  RH WIND       PRES   REMARKS
GOODLAND       SUNNY     16   9  74 NW3       30.01S
HAYS           SUNNY     21  10  63 W3        30.13S
HILL CITY      SUNNY     17  11  77 SW3       30.13S
RUSSELL        SUNNY     22  19  89 SW5       30.14R
$$

KSZ061>065-074>080-084>089-281700-
SOUTHWEST KANSAS

CITY           SKY/WX    TMP DP  RH WIND       PRES   REMARKS
DODGE CITY     SUNNY     28  21  75 S8        30.10S
ELKHART          N/A     23  13  65 W8          N/A
GARDEN CITY    SUNNY     23  21  92 SW6       30.07S
GREAT BEND     SUNNY     23  16  74 CALM      30.16S
LIBERAL        SUNNY     25  18  74 S9        30.08F
$$

KSZ066>073-081>083-090>101-281700-
SOUTHEAST KANSAS

CITY           SKY/WX    TMP DP  RH WIND       PRES   REMARKS
CHANUTE        SUNNY     27  23  85 CALM      30.28R
COFFEYVILLE    SUNNY     28  23  81 CALM      30.30R
HUTCHINSON     SUNNY     29  22  75 S6        30.20S
MEDICINE LODGE   N/A     26  21  81 CALM      30.20S
NEWTON         SUNNY     28  19  69 SW9       30.22R
PARSONS        SUNNY     28  24  85 CALM      30.30R
WICHITA INTL   SUNNY     30  23  75 SW3       30.22S
WICHITA JABRA  SUNNY     31  22  69 SW7       30.22S
WINFIELD       SUNNY     28  23  81 S6        30.26S
$$

KSZ007>012-019>026-033>040-048>060-102>105-281700-
NORTHEAST KANSAS

CITY           SKY/WX    TMP DP  RH WIND       PRES   REMARKS
CONCORDIA      SUNNY     25  19  78 W6        30.16F
EMPORIA        SUNNY     29  23  78 W3        30.23R
LAWRENCE       SUNNY     26  22  84 CALM      30.26R
MANHATTAN      SUNNY     24  20  84 S5        30.22S
OLATHE IND     SUNNY     26  21  81 S7        30.25S
OLATHE EXE     SUNNY     27  21  78 SW7       30.24S
SALINA         SUNNY     27  20  75 S7        30.21R
TOPEKA BILLARD SUNNY     28  20  71 CALM      30.25R
TOPEKA FORBES  SUNNY     27  21  78 S7        30.23R
$$



USA.gov is the U.S. government's official web portal to all federal, state and local government web resources and services.